Ireland West Airport Knock, Ireland

4:14 PM GMT on February 25, 2018 (GMT +0000)
Connaught

Weather History for EIKN - November, 2011

Change the Weather History Date:

Saturday, November 26, 2011

  Actual Average Record
Temperature  
Mean Temperature 47 °F -  
Max Temperature 53 °F - - ()
Min Temperature 41 °F - - ()
Degree Days  
Heating Degree Days 18    
Moisture  
Dew Point 51 °F    
Average Humidity 99    
Maximum Humidity 100    
Minimum Humidity 83    
Precipitation  
Precipitation 0.51 in - - ()
Sea Level Pressure  
Sea Level Pressure 29.90 in    
Wind  
Wind Speed 19 mph ()    
Max Wind Speed 25 mph    
Max Gust Speed 40 mph    
Visibility 4.3 miles    
Events Rain    
T = Trace of Precipitation, MM = Missing Value Source: Averaged Metar Reports

Daily Weather History Graph

Daily Weather History Graph

Search for Another Location

Airport or City:

Trip Planner

Search our weather history database for the weather conditions in past years. The results will help you decide how hot, cold, wet, or windy it might be!

Date:

Astronomy

Nov. 26, 2011 Rise Set
Actual Time 8:21 AM GMT 4:22 PM GMT
Civil Twilight 7:40 AM GMT 5:04 PM GMT
Nautical Twilight 6:55 AM GMT 5:48 PM GMT
Astronomical Twilight 6:13 AM GMT 6:30 PM GMT
Moon 9:50 AM GMT (11/26) 5:28 PM GMT (11/26)
Length of Visible Light 9h 23m
Length of Day
8h 01m
New Moon, 2% of the Moon is Illuminated
Nov 26
New Moon
Dec 2
First Quarter
Dec 10
Full
Dec 18
Last Quarter
Dec 24
New

Hourly Weather History & Observations

Time (GMT) Temp. Dew Point Humidity Pressure Visibility Wind Dir Wind Speed Gust Speed Precip Events Conditions
12:00 AM 46 °F 46 °F 98% 30.12 in - SW 15.7 mph - -  
6:00 AM 49 °F 46 °F 83% 29.99 in 16 mi SW 24.6 mph - -   Partly Cloudy
7:00 AM 48.2 °F 48.2 °F 100% 29.98 in 6.2 mi SSW 21.9 mph - N/A Rain Light Rain
7:30 AM 50.0 °F 48.2 °F 94% 29.95 in 5.6 mi SW 20.7 mph 32.2 mph N/A Rain Light Rain
8:00 AM 50.0 °F 50.0 °F 100% 29.95 in 6.2 mi SSW 20.7 mph 34.5 mph N/A Rain Light Rain
8:30 AM 50.0 °F 50.0 °F 100% 29.95 in 2.5 mi SW 20.7 mph 34.5 mph N/A Rain Light Rain
9:00 AM 50.0 °F 50.0 °F 100% 29.95 in 2.5 mi SSW 23.0 mph 34.5 mph N/A Rain Light Rain
9:30 AM 50.0 °F 50.0 °F 100% 29.92 in 2.8 mi SW 25.3 mph 40.3 mph N/A Rain Light Rain
10:00 AM 51.8 °F 51.8 °F 100% 29.92 in 2.5 mi SW 21.9 mph 33.4 mph N/A Rain Light Rain
10:30 AM 51.8 °F 51.8 °F 100% 29.92 in 1.9 mi SW 24.2 mph 36.8 mph N/A Rain Light Rain
11:00 AM 51.8 °F 51.8 °F 100% 29.95 in 2.5 mi SW 20.7 mph 34.5 mph N/A Rain Light Rain
11:30 AM 51.8 °F 51.8 °F 100% 29.95 in 1.9 mi SW 20.7 mph 34.5 mph N/A Rain Heavy Rain
12:00 PM 52 °F 52 °F 100% 29.95 in 3 mi SW 20.1 mph - - Rain Light Rain
12:00 PM 51.8 °F 51.8 °F 100% 29.92 in 3.1 mi SW 20.7 mph 32.2 mph N/A Rain Light Rain
12:30 PM 51.8 °F 51.8 °F 100% 29.92 in 6.2 mi SW 21.9 mph 35.7 mph N/A Rain Light Rain
1:00 PM 53.6 °F 51.8 °F 94% 29.92 in 5.0 mi SW 20.7 mph - N/A Rain Light Rain
1:30 PM 53.6 °F 51.8 °F 94% 29.92 in 6.2 mi SW 24.2 mph 38.0 mph N/A Rain Light Rain
2:00 PM 51.8 °F 51.8 °F 100% 29.89 in 5.6 mi SSW 23.0 mph - N/A Rain Light Rain
2:30 PM 51.8 °F 51.8 °F 100% 29.89 in 4.3 mi SW 21.9 mph - N/A Rain Light Rain
3:00 PM 51.8 °F 51.8 °F 100% 29.86 in 4.3 mi SW 20.7 mph 32.2 mph N/A Rain Light Rain
3:30 PM 51.8 °F 51.8 °F 100% 29.86 in 3.1 mi SSW 21.9 mph 39.1 mph N/A Rain Light Rain
4:00 PM 51.8 °F 51.8 °F 100% 29.83 in 3.1 mi SW 21.9 mph 34.5 mph N/A Rain Light Drizzle
4:30 PM 51.8 °F 51.8 °F 100% 29.83 in 2.8 mi SW 21.9 mph 35.7 mph N/A Rain Light Rain
5:00 PM 51.8 °F 51.8 °F 100% 29.80 in 2.2 mi SW 20.7 mph 36.8 mph N/A   Light Drizzle
5:30 PM 51.8 °F 51.8 °F 100% 29.80 in 3.7 mi SSW 23.0 mph - N/A   Light Drizzle
6:00 PM 52 °F 52 °F 98% 29.78 in 5 mi SSW 24.6 mph - - Rain Light Drizzle
6:00 PM 51.8 °F 51.8 °F 100% 29.77 in 5.0 mi SSW 25.3 mph 38.0 mph N/A   Light Drizzle
6:30 PM 51.8 °F 51.8 °F 100% 29.74 in 2.8 mi SW 25.3 mph 36.8 mph N/A   Light Drizzle